Weather History for Marietta, GA

Change the Weather History Date:

Monday, January 28, 2013

  Actual Average Record
Temperature  
Mean Temperature 48 °F -  
Max Temperature 55 °F 50 °F 71 °F (2002)
Min Temperature 42 °F 32 °F 19 °F (2014)
Degree Days  
Heating Degree Days 16    
Moisture  
Dew Point 39 °F    
Average Humidity 71    
Maximum Humidity 83    
Minimum Humidity 62    
Precipitation  
Precipitation 0.00 in - - ()
Sea Level Pressure  
Sea Level Pressure 30.37 in    
Wind  
Wind Speed 6 mph (ESE)    
Max Wind Speed 12 mph    
Max Gust Speed -    
Visibility 9 miles    
Events      
Averages and records for this station are not official NWS values.
T = Trace of Precipitation, MM = Missing Value Source: NWS Daily Summary

Daily Weather History Graph

Daily Weather History Graph

Search for Another Location

Airport:

Trip Planner

Search our weather history database for the weather conditions in past years. The results will help you decide how hot, cold, wet, or windy it might be!

Date:

Astronomy

Jan. 28, 2013 Rise Set
Actual Time 7:37 AM EST 6:05 PM EST
Civil Twilight 7:11 AM EST 6:31 PM EST
Nautical Twilight 6:40 AM EST 7:01 PM EST
Astronomical Twilight 6:11 AM EST 7:31 PM EST
Moon 7:51 PM EST (1/28) 8:09 AM EST (1/28)
Length of Visible Light 11h 20m
Length of Day
10h 27m
Full, 98% of the Moon is Illuminated
Jan 28
Full
Feb 3
Last Quarter
Feb 10
New
Feb 17
First Quarter
Feb 25
Full

Hourly Weather History & Observations

Time (EST) Temp. Windchill Dew Point Humidity Pressure Visibility Wind Dir Wind Speed Gust Speed Precip Events Conditions
12:55 AM 43.0 °F 39.5 °F 31.1 °F 63% 30.41 in 10.0 mi Variable 5.8 mph - N/A   Scattered Clouds
1:55 AM 42.3 °F 37.9 °F 30.9 °F 64% 30.41 in 10.0 mi East 6.9 mph - N/A   Clear
2:55 AM 43.3 °F 40.7 °F 31.3 °F 62% 30.42 in 10.0 mi East 4.6 mph - N/A   Overcast
3:55 AM 43.3 °F 37.2 °F 31.1 °F 62% 30.39 in 10.0 mi East 11.5 mph - N/A   Overcast
4:55 AM 43.7 °F 39.7 °F 31.6 °F 63% 30.39 in 10.0 mi East 6.9 mph - N/A   Overcast
5:55 AM 43.9 °F - 32.9 °F 65% 30.40 in 10.0 mi Calm Calm - N/A   Overcast
6:55 AM 43.9 °F 39.9 °F 34.3 °F 69% 30.41 in 10.0 mi East 6.9 mph - N/A   Overcast
7:55 AM 44.1 °F 39.0 °F 36.5 °F 75% 30.42 in 10.0 mi ESE 9.2 mph - N/A   Overcast
8:55 AM 44.2 °F 39.7 °F 37.0 °F 76% 30.43 in 7.0 mi East 8.1 mph - N/A   Overcast
9:55 AM 45.3 °F 40.1 °F 38.1 °F 76% 30.42 in 7.0 mi ESE 10.4 mph - N/A   Overcast
10:55 AM 46.4 °F 42.4 °F 39.4 °F 77% 30.41 in 7.0 mi ESE 8.1 mph - N/A   Overcast
11:55 AM 48.0 °F - 40.6 °F 76% 30.40 in 7.0 mi ESE 6.9 mph - N/A   Overcast
12:55 PM 49.5 °F - 41.9 °F 75% 30.37 in 7.0 mi ESE 8.1 mph - N/A   Overcast
1:55 PM 51.8 °F - 43.0 °F 72% 30.32 in 7.0 mi SE 6.9 mph - N/A   Overcast
2:55 PM 52.9 °F - 44.1 °F 72% 30.31 in 10.0 mi Calm Calm - N/A   Overcast
3:55 PM 54.3 °F - 44.8 °F 70% 30.30 in 10.0 mi Variable 3.5 mph - N/A   Mostly Cloudy
4:35 PM 55.4 °F - 44.6 °F 67% 30.29 in 10.0 mi East 3.5 mph - N/A   Scattered Clouds
4:55 PM 55.6 °F - 45.5 °F 69% 30.30 in 10.0 mi East 4.6 mph - N/A   Scattered Clouds
5:55 PM 53.2 °F - 45.3 °F 74% 30.30 in 10.0 mi Calm Calm - N/A   Scattered Clouds
6:55 PM 49.3 °F - 44.2 °F 83% 30.30 in 10.0 mi East 4.6 mph - N/A   Partly Cloudy
7:55 PM 49.5 °F - 44.4 °F 83% 30.30 in 10.0 mi Calm Calm - N/A   Mostly Cloudy